cover

Jeremy Vancaulart, Laura Aqui, Assaf - The Space Between feat. Laura Aqui (Original Mix)

Get it on iTunes StoreListen on Apple Music

Trackname / Key / BPM / Publish dateArtists, Remixers / Label
129 bpm, 1A / Ab minor, 2015-05-11, Trance,  0  33

Tracks in release Rielism 3

#Trackname / Key / BPM / Publish dateArtists, Remixers / Label
1 128 bpm, 2A / Eb minor, 2015-05-11, Trance,  2  33
2 128 bpm, 3A / Bb minor, 2015-05-11, Trance,  0  33
3 129 bpm, 1A / Ab minor, 2015-05-11, Trance,  0  33
4 132 bpm, 7A / D minor, 2015-05-11, Trance,  0  33
5 130 bpm, 3A / Bb minor, 2015-05-11, Trance,  0  33
6 134 bpm, 3A / Bb minor, 2015-05-11, Trance,  0  33
7 130 bpm, 6B / Bb major, 2015-05-11, Trance,  0  33
8 135 bpm, 8A / A minor, 2015-05-11, Trance,  0  33
9 132 bpm, 10A / B minor, 2015-05-11, Trance,  0  33
10 134 bpm, 11A / F# minor, 2015-05-11, Trance,  2  33
11 136 bpm, 1A / Ab minor, 2015-05-11, Trance,  5  33
12 93 bpm, 5B / Eb major, 2015-05-11, Trance,  0  33
13 136 bpm, 1B / B major, 2015-05-11, Trance,  0  33
14 136 bpm, 1A / Ab minor, 2015-05-11, Trance,  0  33
15 93 bpm, 2A / Eb minor, 2015-05-11, Trance,  0  33
16 130 bpm, 10B / D major, 2015-05-11, Trance,  0  33
17 126 bpm, 5B / Eb major, 2015-05-11, Techno,  0  33
18 133 bpm, 4A / F minor, 2015-05-11, Trance,  0  33
19 138 bpm, 6A / G minor, 2015-05-11, Trance,  0  33
20 138 bpm, 5A / C minor, 2015-05-11, Trance,  0  33
21 140 bpm, 2A / Eb minor, 2015-05-11, Trance,  0  33
22 140 bpm, 6A / G minor, 2015-05-11, Trance,  1  33
23 138 bpm, 6B / Bb major, 2015-05-11, Trance,  2  33
24 140 bpm, 6B / Bb major, 2015-05-11, Trance,  0  33
25 140 bpm, 7A / D minor, 2015-05-11, Trance,  1  33
26 138 bpm, 11B / A major, 2015-05-11, Trance,  0  33
27 138 bpm, 9A / E minor, 2015-05-11, Trance,  0  33
28 138 bpm, 9A / E minor, 2015-05-11, Trance,  0  33
29 138 bpm, 10B / D major, 2015-05-11, Trance,  2  33
30 138 bpm, 8A / A minor, 2015-05-11, Trance,  1  33
31 140 bpm, 11A / F# minor, 2015-05-11, Trance,  1  33
32 138 bpm, 2A / Eb minor, 2015-05-11, Trance,  0  33
33 138 bpm, 7A / D minor, 2015-05-11, Trance,  0  33
×

Sign in

Sign in to access your personalized pages, follow artists and labels you love, and create playlists fromyour favorite tracks.

Please wait...